#timestamp,LO_Frequency,Hit,StdDev 
1638414015.6,286047000.1,N
1638414035.5,286047000.5,N
1638414055.3,286046998.4,N
1638414075.1,286047001.0,N
1638414095.9,286046999.0,N
1638414115.7,286046998.9,N
1638414135.6,286046999.5,N
1638414155.4,286046999.6,N
1638414175.2,286046998.5,N
1638414195.1,286047001.0,N
1638414196.0,286047001.0,N
1638414215.8,286047000.4,N
1638414235.7,286047002.2,N
1638414255.5,286046999.7,N
1638414275.3,286047000.2,N
1638414295.2,286047000.5,N
1638414315.9,286047001.1,N
1638414335.7,286047000.9,N
1638414355.6,286047000.4,N
1638414375.4,286047000.6,N
1638414395.3,286046999.3,N
1638414415.1,286046998.4,N
1638414416.0,286046998.4,N
1638414435.8,286046999.3,N
1638414455.7,286046998.6,N
1638414475.5,286047001.1,N
1638414495.3,286046999.0,N
1638414515.2,286046999.0,N
1638414535.0,286046999.3,N
1638414535.9,286046999.3,N
1638414555.8,286046997.4,N
1638414575.6,286046998.0,N
1638414595.4,286046997.3,N
1638414615.3,286046997.3,N
1638414635.1,286046997.8,N
1638414655.8,286046997.0,N
1638414675.7,286046997.0,N
1638414695.5,286046997.8,N
1638414715.4,286046997.3,N
1638414735.2,286046996.8,N
1638414755.0,286046999.1,N
1638414755.9,286046999.1,N
1638414775.8,286046996.9,N
1638414795.6,286046999.1,N
1638414815.5,286046998.9,N
1638414835.3,286047000.8,N
1638414855.1,286046998.1,N
1638414875.9,286046998.5,N
1638414895.7,286046999.3,N
1638414915.5,286046996.8,N
1638414935.4,286046999.1,N
1638414955.2,286046999.2,N
1638414975.1,286046997.3,N
1638414976.0,286046997.3,N
1638414995.8,286046996.6,Y
1638415015.6,286046998.4,P
1638415035.5,286046998.9,P
1638415055.3,286046997.3,P
1638415075.2,286046996.9,Y
1638415095.9,286046998.7,P
1638415115.7,286046999.6,N
1638415135.6,286047000.5,N
1638415155.4,286046998.5,N
1638415175.2,286047000.7,N
1638415195.1,286047001.2,N
1638415196.0,286047001.2,N
1638415215.8,286046999.5,N
1638415235.7,286046998.4,N
1638415255.5,286046999.5,N
1638415275.3,286046998.2,N
1638415295.2,286046998.8,N
1638415315.0,286046996.7,Y
1638415315.9,286046996.7,P
1638415335.7,286046998.8,N
1638415355.6,286047001.0,N
1638415375.4,286047000.7,N
1638415395.3,286046998.1,N
1638415415.1,286046998.2,N
1638415435.8,286047000.4,N
1638415455.7,286047002.7,N
1638415475.5,286047000.0,N
1638415495.4,286046999.8,N
1638415515.2,286047000.4,N
1638415535.0,286047001.2,N
1638415535.9,286047001.2,N
1638415555.8,286046998.7,N
1638415575.6,286046998.2,N
1638415595.4,286046998.5,N
1638415615.3,286047000.4,N
1638415635.1,286047000.6,N
1638415655.9,286047000.9,N
1638415675.7,286046998.1,N
1638415695.5,286046998.6,N
1638415715.4,286046998.4,N
1638415735.2,286046999.1,N
1638415755.0,286046998.4,N
1638415755.9,286046998.4,N
1638415775.8,286046998.2,N
1638415795.6,286046998.2,N
1638415815.5,286046998.3,N
1638415835.3,286047000.7,N
1638415855.1,286047000.7,N
1638415875.9,286046998.5,N
1638415895.7,286046998.7,N
1638415915.5,286047001.0,N
1638415935.4,286046998.6,N
1638415955.2,286046998.6,N
1638415975.1,286047001.1,N
1638415976.0,286047001.1,N
1638415995.8,286046999.4,N
1638416015.6,286046999.0,N
1638416035.5,286046999.3,N
1638416055.3,286046998.1,N
1638416075.1,286047001.1,N
1638416095.9,286046999.4,N
1638416115.7,286046997.1,N
1638416135.6,286046996.7,N
1638416155.4,286046996.9,N
1638416175.2,286046997.5,N
1638416195.1,286046996.5,N
1638416196.0,286046996.5,N
1638416215.8,286046997.3,N
1638416235.6,286047000.7,N
1638416255.5,286046999.1,N
1638416275.3,286046999.1,N
1638416295.2,286046999.2,N
1638416315.9,286046999.6,N
1638416335.7,286046998.9,N
1638416355.6,286047001.2,N
1638416375.4,286046996.9,N
1638416395.2,286046998.9,N
1638416415.1,286046997.1,N
1638416416.0,286046997.1,N
1638416435.8,286046996.6,N
1638416455.7,286046999.3,N
1638416475.5,286046999.3,N
1638416495.3,286046997.7,N
1638416515.2,286046997.5,N
1638416535.0,286046996.7,N
1638416535.9,286046996.7,N
1638416555.8,286046997.0,N
1638416575.6,286046997.4,N
1638416595.4,286046997.2,N
1638416615.3,286046995.0,Y
1638416635.1,286046998.3,P
1638416655.9,286046998.8,P
1638416675.7,286046998.1,P
1638416695.5,286047000.8,N
1638416715.4,286047001.0,N
1638416735.2,286046998.8,N
1638416755.0,286046998.4,N
1638416755.9,286046998.4,N
1638416775.8,286046998.6,N
1638416795.6,286047001.1,N
1638416815.5,286046998.5,N
1638416835.3,286046998.4,N
1638416855.1,286046996.6,Y
1638416875.9,286046998.1,P
1638416895.7,286046999.3,N
1638416915.6,286046998.9,N
1638416935.4,286046999.1,N
1638416955.2,286046999.0,N
1638416975.1,286046998.8,Y
1638416976.0,286046998.8,P
1638416995.8,286046996.6,P
1638417015.6,286046998.4,N
1638417035.5,286046997.0,Y
1638417055.3,286047000.9,P
1638417075.2,286047001.2,N
1638417095.9,286046999.0,N
1638417115.7,286046998.2,N
1638417135.6,286046999.0,N
1638417155.4,286046997.1,N
1638417175.3,286046997.1,N
1638417195.1,286046997.8,N
1638417196.0,286046997.8,N
1638417215.8,286046999.6,N
1638417235.7,286046997.5,N
1638417255.5,286046997.9,N
1638417275.3,286046995.0,Y
1638417295.2,286046999.2,P
1638417315.0,286046999.1,N
1638417315.9,286046999.1,P
1638417335.8,286046999.1,Y
1638417355.6,286046999.0,P
1638417375.4,286046999.9,P
1638417395.3,286047002.5,P
1638417415.1,286047001.7,N
1638417435.9,286047001.8,N
1638417455.7,286047004.4,Y
1638417475.5,286047004.0,P
1638417495.4,286047004.2,N
1638417515.2,286047004.4,N
1638417535.0,286047003.3,N
1638417535.9,286047003.3,N
1638417555.8,286047006.0,Y
1638417575.6,286047000.2,P
1638417595.5,286047000.9,N
